DAL3043 KMLB-KATL

Flight info

Callsign DAL3043
Flight time N/A
Altitude 35000
Route WORMS JEEMY ACCHE PAINN/N0462F360 SHRKS LAIRI LARZZ JJEDI4
Aircraft A319/M-SDE3FGHIRWY/LB1

Departure

Time N/A
Airport Melbourne Orlando International Airport (KMLB)

Arrival

Time 2026-05-06 03:14
Airport Hartsfield Jackson Atlanta International Airport (KATL)
Time Latitude Longitude Altitude Speed Heading
2026-05-06 02:23 30.14682 -81.59468 36119 ft 364 kts 336°
2026-05-06 02:24 30.19514 -81.61203 36116 ft 363 kts 336°
2026-05-06 02:24 30.24340 -81.62939 36129 ft 363 kts 336°
2026-05-06 02:25 30.29163 -81.64671 36124 ft 363 kts 336°
2026-05-06 02:25 30.33978 -81.66414 36110 ft 363 kts 335°
2026-05-06 02:26 30.38795 -81.68151 36073 ft 363 kts 336°
2026-05-06 02:26 30.43625 -81.69881 36070 ft 363 kts 336°
2026-05-06 02:27 30.48421 -81.71611 36067 ft 363 kts 335°
2026-05-06 02:27 30.53250 -81.73362 36070 ft 364 kts 335°
2026-05-06 02:28 30.58082 -81.75111 36066 ft 364 kts 335°
2026-05-06 02:28 30.62875 -81.76969 36065 ft 359 kts 329°
2026-05-06 02:29 30.67341 -81.79535 36065 ft 358 kts 328°
2026-05-06 02:29 30.71804 -81.82120 36086 ft 358 kts 328°
2026-05-06 02:30 30.76264 -81.84701 36082 ft 358 kts 328°
2026-05-06 02:30 30.80724 -81.87279 36081 ft 358 kts 328°
2026-05-06 02:31 30.85177 -81.89862 36082 ft 358 kts 328°
2026-05-06 02:31 30.89630 -81.92445 36079 ft 358 kts 328°
2026-05-06 02:32 30.94082 -81.95029 36077 ft 358 kts 328°
2026-05-06 02:32 30.98532 -81.97619 36072 ft 357 kts 328°
2026-05-06 02:33 31.02973 -82.00211 36091 ft 357 kts 328°
2026-05-06 02:33 31.04445 -82.01070 36089 ft 357 kts 328°
2026-05-06 02:34 31.11809 -82.05364 36080 ft 356 kts 328°
2026-05-06 02:34 31.16233 -82.07946 36077 ft 355 kts 328°
2026-05-06 02:35 31.20564 -82.10476 36077 ft 355 kts 328°
2026-05-06 02:35 31.24984 -82.13059 36073 ft 355 kts 328°
2026-05-06 02:36 31.29406 -82.15648 36111 ft 355 kts 327°
2026-05-06 02:36 31.33822 -82.18243 36104 ft 355 kts 327°
2026-05-06 02:37 31.38237 -82.20834 36096 ft 355 kts 327°
2026-05-06 02:37 31.42651 -82.23426 36091 ft 355 kts 327°
2026-05-06 02:38 31.47062 -82.26021 36082 ft 355 kts 327°
2026-05-06 02:38 31.51468 -82.28623 36074 ft 355 kts 327°
2026-05-06 02:39 31.55875 -82.31224 36070 ft 355 kts 327°
2026-05-06 02:39 31.60285 -82.33821 36085 ft 355 kts 327°
2026-05-06 02:40 31.64696 -82.36413 36075 ft 354 kts 327°
2026-05-06 02:40 31.69097 -82.39019 36070 ft 354 kts 327°
2026-05-06 02:41 31.73499 -82.41634 36035 ft 355 kts 327°
2026-05-06 02:41 31.77907 -82.44248 36035 ft 355 kts 327°
2026-05-06 02:42 31.82325 -82.46863 36038 ft 356 kts 327°
2026-05-06 02:42 31.86712 -82.49470 36061 ft 356 kts 327°
2026-05-06 02:43 31.91133 -82.52096 36086 ft 356 kts 327°
2026-05-06 02:43 31.95548 -82.54746 36082 ft 354 kts 324°
2026-05-06 02:44 31.99366 -82.58278 36078 ft 348 kts 315°
2026-05-06 02:44 32.03034 -82.62013 36072 ft 349 kts 315°
2026-05-06 02:45 32.06704 -82.65751 36067 ft 349 kts 315°
2026-05-06 02:45 32.10371 -82.69495 36065 ft 349 kts 315°
2026-05-06 02:46 32.14037 -82.73247 36079 ft 349 kts 315°
2026-05-06 02:46 32.15882 -82.75137 35941 ft 356 kts 315°
2026-05-06 02:46 32.17760 -82.77059 35701 ft 359 kts 315°
2026-05-06 02:46 32.19648 -82.78990 35445 ft 359 kts 315°
2026-05-06 02:47 32.21537 -82.80920 35204 ft 359 kts 315°
2026-05-06 02:47 32.23422 -82.82844 34966 ft 358 kts 315°
2026-05-06 02:47 32.25293 -82.84756 34659 ft 352 kts 315°
2026-05-06 02:47 32.27131 -82.86640 34249 ft 348 kts 315°
2026-05-06 02:48 32.28944 -82.88504 33806 ft 343 kts 315°
2026-05-06 02:48 32.30733 -82.90345 33394 ft 338 kts 315°
2026-05-06 02:48 32.32494 -82.92155 33000 ft 333 kts 315°
2026-05-06 02:48 32.34230 -82.93941 32587 ft 329 kts 315°
2026-05-06 02:49 32.35946 -82.95707 32174 ft 325 kts 315°
2026-05-06 02:49 32.37644 -82.97456 31734 ft 323 kts 316°
2026-05-06 02:49 32.39314 -82.99179 31261 ft 323 kts 316°
2026-05-06 02:49 32.41009 -83.00921 30790 ft 323 kts 316°
2026-05-06 02:50 32.42706 -83.02660 30365 ft 323 kts 316°
2026-05-06 02:50 32.44408 -83.04406 29821 ft 324 kts 316°
2026-05-06 02:50 32.46106 -83.06155 29349 ft 323 kts 316°
2026-05-06 02:50 32.47794 -83.07897 28898 ft 321 kts 316°
2026-05-06 02:51 32.49471 -83.09632 28465 ft 319 kts 316°
2026-05-06 02:51 32.51138 -83.11353 28036 ft 317 kts 316°
2026-05-06 02:51 32.52792 -83.13057 27623 ft 314 kts 316°
2026-05-06 02:51 32.54437 -83.14751 27220 ft 312 kts 316°
2026-05-06 02:52 32.56063 -83.16430 26823 ft 309 kts 315°
2026-05-06 02:52 32.57677 -83.18098 26431 ft 307 kts 315°
2026-05-06 02:52 32.59280 -83.19758 26040 ft 306 kts 315°
2026-05-06 02:52 32.60881 -83.21418 25633 ft 305 kts 315°
2026-05-06 02:53 32.62477 -83.23074 25229 ft 305 kts 315°
2026-05-06 02:53 32.64071 -83.24730 24817 ft 305 kts 315°
2026-05-06 02:53 32.65663 -83.26386 24387 ft 304 kts 315°
2026-05-06 02:53 32.67252 -83.28041 23968 ft 304 kts 315°
2026-05-06 02:54 32.68844 -83.29699 23522 ft 304 kts 315°
2026-05-06 02:54 32.70434 -83.31355 23044 ft 304 kts 315°
2026-05-06 02:54 32.72020 -83.33005 22624 ft 303 kts 315°
2026-05-06 02:54 32.73599 -83.34650 22186 ft 301 kts 315°
2026-05-06 02:55 32.75175 -83.36288 21768 ft 300 kts 315°
2026-05-06 02:55 32.76744 -83.37920 21356 ft 299 kts 315°
2026-05-06 02:55 32.78308 -83.39548 20943 ft 298 kts 315°
2026-05-06 02:55 32.79866 -83.41173 20535 ft 298 kts 315°
2026-05-06 02:56 32.81420 -83.42796 20133 ft 297 kts 315°
2026-05-06 02:56 32.82973 -83.44417 19744 ft 297 kts 315°
2026-05-06 02:56 32.84521 -83.46037 19351 ft 296 kts 315°
2026-05-06 02:56 32.86065 -83.47657 18957 ft 296 kts 315°
2026-05-06 02:57 32.87611 -83.49275 18572 ft 296 kts 315°
2026-05-06 02:57 32.89159 -83.50893 18130 ft 297 kts 315°
2026-05-06 02:57 32.90688 -83.52493 17724 ft 296 kts 315°
2026-05-06 02:57 32.92228 -83.54104 17349 ft 294 kts 315°
2026-05-06 02:58 32.93758 -83.55707 16972 ft 293 kts 315°
2026-05-06 02:58 32.95284 -83.57303 16602 ft 292 kts 315°
2026-05-06 02:58 32.96808 -83.58894 16230 ft 291 kts 315°
2026-05-06 02:58 32.98327 -83.60485 15863 ft 290 kts 315°
2026-05-06 02:59 32.99842 -83.62072 15521 ft 290 kts 315°
2026-05-06 02:59 33.01355 -83.63658 15152 ft 290 kts 315°
2026-05-06 02:59 33.02870 -83.65245 14789 ft 290 kts 315°
2026-05-06 02:59 33.04385 -83.66833 14431 ft 290 kts 315°
2026-05-06 03:00 33.05896 -83.68421 14072 ft 290 kts 315°
2026-05-06 03:00 33.07409 -83.70012 13700 ft 290 kts 315°
2026-05-06 03:00 33.08921 -83.71601 13322 ft 289 kts 315°
2026-05-06 03:00 33.10425 -83.73184 12967 ft 287 kts 315°
2026-05-06 03:01 33.11920 -83.74757 12600 ft 286 kts 315°
2026-05-06 03:01 33.13407 -83.76321 12243 ft 285 kts 315°
2026-05-06 03:01 33.14891 -83.77881 11886 ft 283 kts 315°
2026-05-06 03:01 33.16367 -83.79437 11525 ft 282 kts 315°
2026-05-06 03:02 33.17834 -83.80988 11164 ft 281 kts 315°
2026-05-06 03:02 33.19295 -83.82539 10800 ft 280 kts 314°
2026-05-06 03:02 33.20705 -83.84138 10433 ft 279 kts 311°
2026-05-06 03:02 33.22075 -83.85769 10077 ft 278 kts 310°
2026-05-06 03:03 33.23428 -83.87409 9687 ft 277 kts 310°
2026-05-06 03:03 33.24774 -83.89045 9306 ft 275 kts 310°
2026-05-06 03:03 33.26114 -83.90672 8928 ft 274 kts 310°
2026-05-06 03:03 33.27452 -83.92283 8546 ft 273 kts 310°
2026-05-06 03:04 33.28789 -83.93886 8177 ft 271 kts 310°
2026-05-06 03:04 33.30118 -83.95476 7868 ft 269 kts 310°
2026-05-06 03:04 33.31000 -83.96530 7761 ft 273 kts 310°
2026-05-06 03:04 33.32347 -83.98140 7566 ft 274 kts 310°
2026-05-06 03:05 33.33694 -83.99752 7357 ft 274 kts 310°
2026-05-06 03:05 33.35079 -84.01325 7152 ft 277 kts 317°
2026-05-06 03:05 33.36770 -84.02457 6947 ft 283 kts 335°
2026-05-06 03:05 33.38719 -84.02930 6730 ft 290 kts 353°
2026-05-06 03:06 33.40746 -84.02971 6512 ft 291 kts 355°
2026-05-06 03:06 33.42767 -84.03007 6284 ft 291 kts 355°
2026-05-06 03:06 33.44788 -84.03045 6046 ft 290 kts 355°
2026-05-06 03:06 33.46774 -84.03283 5822 ft 283 kts 337°
2026-05-06 03:07 33.48480 -84.04369 5622 ft 275 kts 319°
2026-05-06 03:07 33.49928 -84.05844 5421 ft 272 kts 311°
2026-05-06 03:07 33.51258 -84.07450 5217 ft 271 kts 308°
2026-05-06 03:07 33.52560 -84.09082 5017 ft 271 kts 309°
2026-05-06 03:08 33.53870 -84.10700 4816 ft 271 kts 309°
2026-05-06 03:08 33.57679 -84.15159 4493 ft 233 kts 311°
2026-05-06 03:09 33.58831 -84.16473 4392 ft 226 kts 311°
2026-05-06 03:09 33.59952 -84.17752 4296 ft 225 kts 311°
2026-05-06 03:09 33.61063 -84.19016 4198 ft 215 kts 311°
2026-05-06 03:09 33.62144 -84.20250 4103 ft 209 kts 308°
2026-05-06 03:10 33.62909 -84.21671 4010 ft 200 kts 285°
2026-05-06 03:10 33.63169 -84.23269 3910 ft 193 kts 265°
2026-05-06 03:10 33.63171 -84.24864 3701 ft 188 kts 265°
2026-05-06 03:10 33.63173 -84.26377 3489 ft 177 kts 264°
2026-05-06 03:11 33.63175 -84.27822 3254 ft 171 kts 264°
2026-05-06 03:11 33.63176 -84.29242 3046 ft 170 kts 263°
2026-05-06 03:11 33.63176 -84.30654 2824 ft 169 kts 263°
2026-05-06 03:11 33.63177 -84.32065 2605 ft 169 kts 263°
2026-05-06 03:12 33.63179 -84.33471 2382 ft 168 kts 263°
2026-05-06 03:12 33.63179 -84.34870 2164 ft 168 kts 263°
2026-05-06 03:12 33.63182 -84.36250 1952 ft 158 kts 262°
2026-05-06 03:12 33.63184 -84.37481 1745 ft 145 kts 263°
2026-05-06 03:13 33.63184 -84.38680 1554 ft 143 kts 267°
2026-05-06 03:13 33.63180 -84.39868 1369 ft 142 kts 266°
2026-05-06 03:13 33.63189 -84.41055 1175 ft 141 kts 266°
2026-05-06 03:13 33.63185 -84.42233 1027 ft 140 kts 267°
2026-05-06 03:14 33.63182 -84.43296 1008 ft 108 kts 270°
2026-05-06 03:14 33.63183 -84.43995 1004 ft 59 kts 271°
2026-05-06 03:14 33.63186 -84.44397 1004 ft 45 kts 270°
2026-05-06 03:14 33.63181 -84.44708 1008 ft 18 kts 272°
2026-05-06 03:15 33.63268 -84.44776 1007 ft 16 kts
2026-05-06 03:15 33.63383 -84.44779 1007 ft 17 kts 359°
2026-05-06 03:15 33.63500 -84.44777 1006 ft 18 kts
2026-05-06 03:15 33.63621 -84.44765 1006 ft 17 kts 26°
2026-05-06 03:16 33.63664 -84.44646 1006 ft 16 kts 90°
2026-05-06 03:16 33.63663 -84.44506 1006 ft 18 kts 88°
2026-05-06 03:16 33.63665 -84.44355 1006 ft 19 kts 89°
2026-05-06 03:16 33.63665 -84.44199 1007 ft 19 kts 90°
2026-05-06 03:17 33.63746 -84.44115 1006 ft 18 kts
2026-05-06 03:17 33.63784 -84.44177 1006 ft 9 kts 295°
2026-05-06 03:17 33.63789 -84.44208 1006 ft 0 kts 270°